Weather History for Abingdon, VA

Change the Weather History Date:

Friday, December 13, 2013

  Actual Average (KTRI) Record (KTRI)
Temperature  
Mean Temperature 32 °F 38 °F  
Max Temperature 45 °F 48 °F 67 °F (1984)
Min Temperature 20 °F 28 °F -9 °F (1962)
Degree Days  
Heating Degree Days 32 27  
Month to date heating degree days 330  
Since 1 July heating degree days 1216  
Cooling Degree Days 0 0  
Month to date cooling degree days 0  
Year to date cooling degree days 981  
Moisture  
Dew Point 20 °F    
Average Humidity 63    
Maximum Humidity 91    
Minimum Humidity 36    
Precipitation  
Precipitation 0.00 in 0.11 in 1.18 in (1998)
Month to date precipitation 1.49  
Year to date precipitation 39.13  
Snow  
Snow 0.00 in 0.10 in - ()
Month to date snowfall 0.8  
Since 1 July snowfall 1.1  
Snow Depth -    
Sea Level Pressure  
Sea Level Pressure 30.27 in    
Wind  
Wind Speed 1 mph (WSW)    
Max Wind Speed 9 mph    
Max Gust Speed -    
Visibility 10 miles    
Events      
T = Trace of Precipitation, MM = Missing Value Source: NWS Daily Summary

Daily Weather History Graph

Daily Weather History Graph

Search for Another Location

Airport:

Trip Planner

Search our weather history database for the weather conditions in past years. The results will help you decide how hot, cold, wet, or windy it might be!

Date:

Astronomy

Dec. 13, 2013 Rise Set
Actual Time 7:32 AM EST 5:12 PM EST
Civil Twilight 7:03 AM EST 5:41 PM EST
Nautical Twilight 6:30 AM EST 6:14 PM EST
Astronomical Twilight 5:59 AM EST 6:45 PM EST
Moon 2:51 PM EST (12/13) 3:57 AM EST (12/13)
Length of Visible Light 10h 38m
Length of Day
9h 40m
Waxing Gibbous, 88% of the Moon is Illuminated
Dec 13
Waxing Gibbous
Dec 17
Full
Dec 25
Last Quarter
Jan 1
New
Jan 7
First Quarter

Hourly Weather History & Observations

Time (EST) Temp. Windchill Dew Point Humidity Pressure Visibility Wind Dir Wind Speed Gust Speed Precip Events Conditions
12:15 AM 24.3 °F - 18.5 °F 79% 30.33 in 10.0 mi Calm Calm - N/A   Clear
12:35 AM 24.8 °F - 18.5 °F 77% 30.34 in 10.0 mi Calm Calm - N/A   Clear
12:55 AM 25.0 °F - 18.5 °F 76% 30.34 in 10.0 mi Calm Calm - N/A   Clear
1:15 AM 24.4 °F - 18.5 °F 78% 30.33 in 10.0 mi Calm Calm - N/A   Clear
1:35 AM 23.7 °F - 18.3 °F 80% 30.32 in 10.0 mi Calm Calm - N/A   Clear
1:55 AM 22.3 °F - 18.3 °F 85% 30.33 in 10.0 mi Calm Calm - N/A   Clear
2:15 AM 22.3 °F - 19.2 °F 88% 30.33 in 10.0 mi Calm Calm - N/A   Clear
2:35 AM 22.6 °F - 19.2 °F 87% 30.33 in 10.0 mi Calm Calm - N/A   Clear
2:55 AM 22.1 °F - 18.7 °F 87% 30.33 in 10.0 mi Calm Calm - N/A   Clear
3:15 AM 22.3 °F - 18.5 °F 85% 30.33 in 10.0 mi Calm Calm - N/A   Clear
3:35 AM 23.0 °F - 18.5 °F 83% 30.33 in 10.0 mi Calm Calm - N/A   Clear
3:55 AM 22.6 °F - 18.7 °F 85% 30.33 in 10.0 mi Calm Calm - N/A   Clear
4:15 AM 23.9 °F - 18.5 °F 80% 30.32 in 10.0 mi Calm Calm - N/A   Clear
4:35 AM 23.5 °F - 18.3 °F 80% 30.31 in 10.0 mi Calm Calm - N/A   Clear
4:55 AM 21.9 °F - 18.1 °F 85% 30.31 in 10.0 mi Calm Calm - N/A   Clear
5:15 AM 20.8 °F - 18.1 °F 89% 30.30 in 10.0 mi Calm Calm - N/A   Clear
5:35 AM 21.2 °F - 18.1 °F 88% 30.30 in 10.0 mi Calm Calm - N/A   Clear
5:55 AM 21.2 °F - 18.5 °F 89% 30.30 in 10.0 mi Calm Calm - N/A   Clear
6:35 AM 21.6 °F - 18.1 °F 87% 30.30 in 10.0 mi Calm Calm - N/A   Clear
6:55 AM 20.7 °F - 18.3 °F 91% 30.30 in 10.0 mi Calm Calm - N/A   Clear
7:15 AM 20.8 °F - 18.3 °F 90% 30.30 in 10.0 mi Calm Calm - N/A   Clear
7:35 AM 21.7 °F - 18.0 °F 85% 30.31 in 10.0 mi Calm Calm - N/A   Clear
7:55 AM 21.2 °F - 17.4 °F 85% 30.30 in 10.0 mi Calm Calm - N/A   Clear
8:15 AM 23.2 °F - 18.1 °F 81% 30.31 in 10.0 mi Calm Calm - N/A   Clear
8:35 AM 24.8 °F - 17.8 °F 75% 30.31 in 10.0 mi Calm Calm - N/A   Clear
8:55 AM 27.5 °F - 19.0 °F 71% 30.31 in 10.0 mi Calm Calm - N/A   Clear
9:15 AM 30.2 °F - 20.5 °F 67% 30.31 in 10.0 mi Calm Calm - N/A   Clear
9:35 AM 31.1 °F - 18.3 °F 59% 30.32 in 10.0 mi Calm Calm - N/A   Clear
9:55 AM 32.9 °F - 20.3 °F 60% 30.31 in 10.0 mi Calm Calm - N/A   Clear
10:15 AM 34.3 °F - 20.1 °F 56% 30.31 in 10.0 mi Calm Calm - N/A   Clear
10:35 AM 35.6 °F 31.7 °F 18.7 °F 50% 30.32 in 10.0 mi SW 4.6 mph - N/A   Clear
10:55 AM 36.5 °F 33.9 °F 18.9 °F 49% 30.32 in 10.0 mi West 3.5 mph - N/A   Clear
11:15 AM 37.4 °F 32.1 °F 18.7 °F 47% 30.31 in 10.0 mi WSW 6.9 mph - N/A   Clear
11:35 AM 38.8 °F 34.6 °F 18.5 °F 44% 30.30 in 10.0 mi WSW 5.8 mph - N/A   Clear
11:55 AM 39.4 °F 34.5 °F 18.0 °F 42% 30.29 in 10.0 mi WSW 6.9 mph - N/A   Clear
12:15 PM 39.9 °F 37.8 °F 18.0 °F 41% 30.28 in 10.0 mi West 3.5 mph - N/A   Clear
12:35 PM 40.8 °F 38.8 °F 18.3 °F 40% 30.27 in 10.0 mi WSW 3.5 mph - N/A   Clear
12:55 PM 41.9 °F 40.0 °F 19.2 °F 40% 30.27 in 10.0 mi SW 3.5 mph - N/A   Clear
1:15 PM 43.2 °F 38.4 °F 20.1 °F 40% 30.25 in 10.0 mi WSW 8.1 mph - N/A   Clear
1:35 PM 44.4 °F 39.5 °F 20.1 °F 38% 30.25 in 10.0 mi WNW 9.2 mph - N/A   Clear
1:55 PM 44.6 °F 41.4 °F 20.5 °F 38% 30.24 in 10.0 mi West 5.8 mph - N/A   Clear
2:15 PM 45.1 °F 42.0 °F 20.7 °F 38% 30.23 in 10.0 mi WSW 5.8 mph - N/A   Clear
2:35 PM 45.5 °F 41.8 °F 19.9 °F 36% 30.23 in 10.0 mi SW 6.9 mph - N/A   Clear
2:55 PM 45.5 °F 41.3 °F 19.9 °F 36% 30.23 in 10.0 mi WSW 8.1 mph - N/A   Clear
3:15 PM 44.8 °F 41.6 °F 19.8 °F 37% 30.22 in 10.0 mi SW 5.8 mph - N/A   Clear
3:35 PM 45.1 °F 40.8 °F 20.3 °F 37% 30.22 in 10.0 mi WSW 8.1 mph - N/A   Clear
3:55 PM 43.5 °F 39.4 °F 19.9 °F 39% 30.22 in 10.0 mi WSW 6.9 mph - N/A   Clear
4:15 PM 43.7 °F 42.1 °F 20.7 °F 40% 30.22 in 10.0 mi West 3.5 mph - N/A   Clear
4:35 PM 43.7 °F 42.1 °F 21.0 °F 41% 30.22 in 10.0 mi West 3.5 mph - N/A   Clear
4:55 PM 42.8 °F - 20.1 °F 40% 30.22 in 10.0 mi Calm Calm - N/A   Clear
5:15 PM 42.1 °F - 20.1 °F 42% 30.22 in 10.0 mi Calm Calm - N/A   Clear
5:35 PM 40.1 °F - 21.2 °F 47% 30.21 in 10.0 mi Calm Calm - N/A   Clear
5:55 PM 37.9 °F - 22.1 °F 53% 30.22 in 10.0 mi Calm Calm - N/A   Clear
6:15 PM 37.0 °F - 23.2 °F 57% 30.22 in 10.0 mi Calm Calm - N/A   Clear
6:35 PM 36.1 °F - 23.5 °F 60% 30.22 in 10.0 mi Calm Calm - N/A   Clear
6:55 PM 35.2 °F - 23.9 °F 63% 30.23 in 10.0 mi Calm Calm - N/A   Clear
7:15 PM 34.3 °F - 24.6 °F 68% 30.23 in 10.0 mi Calm Calm - N/A   Clear
7:35 PM 35.8 °F - 24.1 °F 62% 30.23 in 10.0 mi Calm Calm - N/A   Clear
7:55 PM 36.0 °F - 24.1 °F 62% 30.23 in 10.0 mi Calm Calm - N/A   Clear
8:15 PM 35.2 °F - 26.4 °F 70% 30.23 in 10.0 mi Calm Calm - N/A   Clear
8:35 PM 35.4 °F 31.5 °F 25.5 °F 67% 30.23 in 10.0 mi SE 4.6 mph - N/A   Clear
8:55 PM 35.6 °F - 25.3 °F 66% 30.23 in 10.0 mi Calm Calm - N/A   Clear
9:15 PM 35.2 °F - 25.7 °F 68% 30.23 in 10.0 mi Calm Calm - N/A   Scattered Clouds
9:35 PM 35.8 °F 33.0 °F 25.9 °F 67% 30.22 in 10.0 mi ENE 3.5 mph - N/A   Overcast
9:55 PM 37.2 °F 31.2 °F 23.9 °F 59% 30.20 in 10.0 mi ENE 8.1 mph - N/A   Overcast
10:15 PM 37.9 °F - 24.6 °F 59% 30.22 in 10.0 mi Calm Calm - N/A   Overcast
10:35 PM 37.4 °F 31.4 °F 25.5 °F 62% 30.19 in 10.0 mi East 8.1 mph - N/A   Overcast
10:55 PM 37.4 °F - 24.6 °F 60% 30.22 in 10.0 mi Calm Calm - N/A   Overcast
11:15 PM 38.1 °F 32.9 °F 23.7 °F 56% 30.20 in 10.0 mi ENE 6.9 mph - N/A   Overcast
11:35 PM 39.0 °F - 23.0 °F 53% 30.20 in 10.0 mi Calm Calm - N/A   Overcast
11:55 PM 38.5 °F 34.1 °F 24.4 °F 57% 30.18 in 10.0 mi East 5.8 mph - N/A   Overcast